Location: Grand Mesa Observatory
(38.9638°N, 108.2379°W)
Time: 17:29:09
(UTC-06:00)

Tiangong 2 - Visible Passes

Search period start: 21 July 2018 00:00
Search period end: 31 July 2018 00:00
Orbit: 386 x 394 km, 42.8° (Epoch: 21 July)

Date Brightness Start Highest point End Pass type
(mag) Time Alt. Az. Time Alt. Az. Time Alt. Az.
21 Jul 1.1 21:48:10 10° WNW 21:51:21 79° NNE 21:53:03 25° ESE visible
22 Jul 2.1 22:27:27 10° W 22:30:06 34° SW 22:30:06 34° SW visible
23 Jul 1.3 21:29:37 10° WNW 21:32:45 60° SSW 21:34:52 19° SE visible
24 Jul 3.0 22:09:20 10° W 22:11:37 18° SW 22:11:59 18° SSW visible
25 Jul 2.3 21:11:10 10° W 21:14:03 31° SSW 21:16:51 10° SSE visible
